Location: *
(49.5667°N, 1.3667°W)
Time: 07:06:01
(UTC+00:00)

NOSS 3-3 (C) - Pass Details

Date: 20 September 2019
Orbit: 849 x 1364 km, 63.4° (Epoch: 08 October)

Event Time Altitude Azimuth Distance (km) Brightness Sun altitude
Rises 18:30:02 0° 218° (SW) 3,470 7.4 -4.3°
Reaches altitude 10° 18:32:24 10° 218° (SW) 2,575 6.7 -4.7°
Maximum altitude 18:38:23 85° 131° (SE) 980 4.0 -5.6°
Drops below altitude 10° 18:45:11 10° 43° (NE) 2,904 6.2 -6.7°
Sets 18:48:00 0° 43° (NE) 3,944 6.8 -7.2°
